Probability
4 7 16 26 24 10 2 0 0 0 0 0 0 0 0 0 0 0 1 3 4 2 0 1 2 2 1 0 0 0 0 0 0 0 0 0 0 0 0 0 0 0 0 0 0 0 0 1 2
4 10 21 25 17 6 1 0 0 0 0 0 0 0 0 0 0 0 1 3 3 1 1 2 3 3 2 1 0 0 0 0 0 0 0 0 0 0 0 0 0 0 0 0 0 0 0 1 1
8 17 26 22 9 2 0 0 0 0 0 0 0 0 0 0 0 0 0 1 2 1 2 4 4 3 3 2 1 0 0 0 0 0 0 0 0 0 0 0 0 0 0 0 0 0 0 0 0
19 25 25 15 4 0 0 0 0 0 0 0 0 0 0 0 0 0 0 1 2 2 3 6 7 6 4 3 2 1 0 0 0 0 0 0 0 0 0 1 1 0 0 0 0 0 0 0 0
27 26 19 8 1 0 0 0 0 0 0 0 0 0 0 0 0 0 0 1 2 3 4 7 10 9 6 4 3 3 1 0 0 0 0 0 0 0 0 1 1 0 0 0 0 0 0 0 1
29 22 12 3 0 0 0 0 0 0 0 0 0 0 0 0 0 0 0 0 1 3 5 7 10 10 7 4 4 4 3 1 0 0 0 0 0 0 0 0 0 0 0 0 0 0 0 1 2
26 18 7 1 0 0 0 0 0 0 0 0 0 0 0 0 0 0 0 0 1 3 4 5 6 7 5 3 4 5 4 2 1 0 1 1 1 0 0 0 1 1 0 0 0 0 0 1 2
18 12 4 0 0 0 0 0 0 0 0 0 0 0 0 0 0 0 0 0 1 2 2 2 3 3 2 2 4 6 5 3 2 2 2 3 2 0 0 0 2 2 1 0 0 0 0 0 1
9 6 2 0 0 0 0 0 0 0 0 1 1 0 0 0 0 0 0 0 0 1 1 2 3 2 0 1 4 6 5 3 2 2 3 2 1 0 0 0 1 1 1 1 1 1 0 0 0
3 3 1 0 0 0 0 0 0 1 1 2 2 1 0 0 0 0 0 0 1 1 2 4 4 2 1 1 3 5 4 2 2 2 2 1 0 0 0 0 0 0 2 3 3 1 1 1 1
0 0 0 0 0 0 0 0 1 2 3 3 4 2 1 1 0 0 0 1 3 4 4 4 4 3 1 1 2 3 3 2 1 1 2 1 1 1 1 1 1 1 1 3 3 2 1 2 3
0 0 0 0 1 1 1 1 2 3 3 5 6 4 3 2 1 1 1 2 5 6 5 5 6 4 2 1 1 1 1 1 1 2 3 2 2 2 2 2 4 4 3 3 3 2 2 4 5
0 0 0 0 1 2 1 1 1 2 4 6 6 5 4 4 3 2 3 5 7 8 8 8 8 8 5 1 0 0 0 1 1 1 2 3 2 3 2 2 5 6 7 7 5 4 3 5 6
0 0 0 0 0 1 1 0 0 2 4 6 6 6 5 5 4 3 5 8 11 11 10 9 10 10 6 2 0 0 0 0 1 1 1 3 3 2 2 2 3 6 8 9 7 5 4 5 5
0 0 0 0 0 0 0 0 0 2 4 5 6 6 6 5 5 5 9 13 14 14 12 10 9 9 6 2 0 0 0 0 1 1 2 3 4 3 2 2 2 5 10 11 9 6 5 4 4
0 0 0 0 0 0 1 0 1 3 4 5 6 6 6 7 6 8 13 16 17 17 15 12 10 10 7 4 1 1 1 1 1 1 2 3 4 4 4 3 3 7 11 11 9 7 4 3 3
0 0 0 0 0 1 1 0 1 3 5 7 8 8 9 9 8 10 13 17 19 21 19 15 13 12 9 5 4 4 3 3 2 2 3 3 4 5 5 4 5 7 9 9 7 5 4 3 4
0 0 0 0 1 2 1 0 0 1 5 10 11 11 12 12 10 11 13 16 20 24 23 20 18 15 11 8 8 8 7 5 5 4 4 3 4 4 5 5 5 5 7 7 6 5 4 4 5
0 0 0 1 2 3 2 0 0 1 3 9 13 14 14 13 13 14 16 17 21 25 27 27 24 19 14 12 12 10 8 7 7 7 8 7 5 4 5 6 5 5 6 7 7 6 5 5 5
0 0 0 1 2 2 1 0 0 0 1 4 10 14 15 16 19 21 20 20 23 27 30 31 28 23 19 17 14 10 8 7 7 10 12 11 7 4 5 6 6 5 7 9 9 7 6 6 6
0 0 0 0 1 2 1 0 1 2 1 1 5 11 14 19 25 28 25 22 24 27 31 32 32 29 24 20 16 12 8 7 8 11 13 12 8 5 5 7 8 8 9 11 11 9 8 7 6
0 0 0 0 1 2 1 1 3 5 4 2 3 7 13 21 29 33 29 25 24 26 30 35 38 36 31 26 23 18 12 9 9 10 12 10 8 7 7 8 11 11 11 12 12 11 9 8 6
0 0 0 0 0 0 0 1 3 5 5 4 4 6 11 20 29 34 32 28 25 25 30 37 41 39 35 32 30 26 20 14 12 11 11 10 10 9 9 11 14 14 14 14 14 13 11 9 7
0 0 0 0 0 0 0 0 2 4 5 6 6 6 10 17 26 33 34 31 28 27 30 36 40 39 35 33 32 29 25 20 16 13 11 12 12 12 12 14 16 15 14 15 16 15 12 10 8
0 0 0 0 0 0 0 1 2 4 6 7 7 7 10 17 26 34 38 38 34 31 31 34 38 37 34 32 30 27 24 20 16 13 12 12 13 14 16 17 18 18 16 15 18 17 14 12 11
0 0 0 0 0 0 1 3 3 3 5 6 6 7 13 22 30 36 42 43 39 32 31 33 36 37 33 31 31 29 24 19 16 13 10 10 11 13 15 18 21 22 19 18 20 19 17 17 17
0 0 0 0 0 0 2 3 2 1 2 4 6 9 17 26 32 34 38 40 36 31 29 32 36 37 34 33 33 32 28 24 19 14 11 10 10 11 14 19 22 24 23 23 23 22 21 21 23
0 0 0 0 0 0 1 2 1 0 1 4 8 12 19 27 30 31 33 35 32 29 28 31 36 39 38 35 35 33 31 27 21 17 15 13 12 11 14 18 21 23 26 29 29 27 24 25 27
0 0 0 0 0 0 1 2 1 1 3 7 12 16 21 26 29 31 33 34 33 30 29 31 36 41 40 38 36 34 32 29 23 19 18 17 15 15 15 16 18 22 26 30 32 29 25 25 27
0 0 0 0 0 0 1 3 2 2 4 10 15 19 22 25 27 31 34 35 34 31 30 30 35 40 41 39 37 35 33 30 25 20 19 19 17 17 17 16 17 21 25 28 30 27 24 25 25
Wind_Speed
9 10 9 6 5 1 8 12 14 13 13 13 13 12 16 15 11 10 8 12 14 14 13 12 12 12 12 12 12 12 12 12 11 10 10 11 11 11 11 11 10 10 9 10 10 9 9 9 9
9 10 7 5 2 5 9 11 13 12 11 10 12 15 16 15 14 11 9 12 14 14 12 11 11 12 12 12 12 12 12 11 10 10 10 10 10 10 11 10 9 9 9 9 9 8 8 8 8
11 11 6 3 3 7 10 10 11 11 10 10 12 13 12 11 12 9 10 12 14 14 13 12 12 12 12 12 12 11 11 11 10 10 9 9 10 10 10 9 9 8 7 7 7 7 7 7 7
7 7 5 1 7 10 10 9 10 11 11 10 12 12 11 11 11 11 11 13 14 14 14 13 13 12 12 12 11 11 10 10 10 9 9 9 9 9 9 9 8 8 7 6 6 6 6 6 6
7 4 2 3 9 11 10 9 10 11 11 13 15 14 13 12 13 13 11 13 13 14 14 13 13 13 12 12 11 10 10 10 9 9 9 8 8 8 8 8 7 7 7 6 6 6 6 6 4
4 3 1 6 11 11 10 9 11 12 12 14 15 14 11 10 12 11 10 11 12 13 14 13 13 13 12 12 11 11 11 10 9 9 8 8 8 8 7 6 6 6 6 6 6 5 5 5 5
5 2 2 8 10 10 10 9 11 11 10 11 13 12 11 10 10 10 10 10 11 12 12 11 11 11 12 12 11 11 11 9 9 8 8 8 8 7 6 6 5 5 5 5 5 5 5 5 5
3 2 4 8 11 9 9 10 10 11 12 10 9 11 11 11 10 10 10 10 9 9 10 10 10 10 10 10 11 11 10 9 8 8 8 7 7 7 6 5 5 6 5 6 5 5 5 5 6
2 0 4 7 9 8 10 10 10 12 12 12 13 15 15 14 12 10 10 10 8 8 7 7 8 8 8 9 11 10 9 8 8 6 7 6 4 4 5 5 6 6 6 6 6 6 6 6 7
1 2 6 7 8 9 10 9 9 10 12 12 15 16 15 13 11 10 10 10 9 8 7 6 6 6 6 6 7 6 5 5 4 2 3 2 2 2 4 7 7 6 6 6 7 7 7 6 4
3 4 6 7 8 8 9 8 8 9 10 11 14 15 13 12 9 9 9 9 9 8 7 7 6 5 5 5 5 3 3 3 3 3 1 1 1 2 2 3 4 4 6 4 5 6 5 5 4
3 4 5 7 7 7 8 8 10 11 11 12 13 13 11 10 8 8 8 10 10 9 8 7 7 6 4 4 3 3 3 2 2 2 1 1 1 1 1 1 2 3 2 3 3 3 4 3 3
2 4 5 6 7 8 8 9 10 11 13 14 13 12 10 9 8 8 8 9 9 8 8 8 8 5 4 3 1 3 3 3 3 2 1 1 1 1 1 0 0 1 1 2 2 2 1 1 2
3 3 3 5 6 7 8 8 9 10 12 13 12 10 9 8 9 8 8 8 8 7 7 8 8 6 4 3 1 2 2 3 3 2 1 1 1 1 0 0 0 1 0 0 0 1 1 1 1
0 0 2 4 6 6 7 8 7 8 11 11 10 9 9 8 8 8 8 8 8 7 7 6 7 7 5 3 2 2 2 3 3 2 2 1 1 1 1 1 1 0 1 1 1 0 1 2 2
4 3 4 3 5 6 4 7 8 8 11 10 9 8 7 7 8 8 9 8 8 7 6 5 5 7 5 3 2 2 2 2 2 2 2 1 1 0 1 0 0 1 1 1 1 1 1 1 1
7 4 4 3 3 6 5 7 8 9 10 9 9 9 8 7 7 7 9 9 9 7 6 5 5 5 3 3 2 1 2 2 1 2 2 1 1 1 1 1 1 1 1 0 1 1 0 0 1
6 3 3 3 4 3 5 9 9 9 9 9 8 8 8 7 7 7 8 9 9 8 7 5 5 5 3 2 1 1 1 1 1 1 2 2 1 1 1 1 1 1 0 0 1 1 1 1 1
6 4 4 2 2 3 4 7 7 8 8 9 8 8 8 7 7 8 8 8 9 8 7 6 5 5 3 2 2 1 1 1 1 1 2 2 2 1 2 2 1 1 1 0 0 1 1 1 1
6 6 3 2 2 2 3 4 6 6 6 7 8 8 9 9 8 8 8 8 9 8 7 6 5 5 4 3 2 2 1 1 1 1 1 1 1 1 2 1 1 1 1 1 1 1 1 2 1
7 4 4 4 4 4 3 3 6 7 6 7 8 8 8 9 10 9 8 8 8 8 7 6 5 5 4 3 2 2 1 1 1 1 1 1 1 1 2 2 2 1 2 1 2 2 2 2 2
7 5 6 7 6 5 6 3 5 7 6 6 6 6 7 8 9 9 8 7 8 8 7 6 6 5 4 3 3 3 2 2 2 1 1 1 2 2 3 2 2 2 1 2 3 2 2 2 2
7 7 8 10 10 9 7 3 5 8 8 7 5 5 5 7 8 9 8 7 7 7 7 7 6 5 4 3 2 2 2 1 1 1 1 2 2 3 3 3 2 2 2 2 2 1 2 2 2
7 9 10 10 8 9 7 5 4 5 5 7 7 5 5 6 7 8 8 7 6 7 7 7 7 5 4 4 3 2 2 2 2 1 1 2 2 2 2 2 2 2 2 2 2 2 2 2 2
9 9 6 6 6 7 8 5 2 5 5 5 6 6 5 6 7 7 7 7 6 7 7 7 7 6 5 4 3 3 2 2 2 2 2 2 1 1 1 2 2 2 2 2 2 2 2 2 3
10 11 8 8 6 6 7 3 4 5 5 6 6 7 6 5 6 6 7 7 6 6 6 6 7 6 6 5 4 3 3 2 2 2 2 2 2 2 1 2 2 2 2 3 2 2 3 2 3
10 9 10 10 11 8 3 2 3 3 4 6 6 6 6 6 5 5 6 6 6 6 6 5 6 6 6 5 4 4 3 2 2 2 2 2 2 2 1 2 2 2 2 2 2 2 2 2 2
11 9 6 8 7 8 3 3 3 4 3 5 5 6 5 6 5 5 4 5 5 5 5 4 6 6 5 5 4 4 3 3 2 2 2 1 1 2 1 2 2 2 2 2 2 2 2 1 2
9 9 8 8 8 9 5 0 3 3 3 5 6 6 5 5 5 4 4 5 4 4 4 3 4 5 5 5 4 3 3 3 3 3 2 2 1 1 1 2 2 2 2 1 2 2 2 2 2
10 10 9 7 7 8 7 1 3 3 3 4 6 7 6 5 5 5 4 4 4 3 3 3 2 4 4 4 4 3 3 2 3 3 2 1 1 1 2 2 2 3 2 2 2 3 3 3 3
Wind_Direction
199 215 219 236 241 221 58 59 64 62 60 58 56 64 64 55 59 83 99 101 103 104 109 108 105 106 107 107 107 110 111 110 109 106 105 107 108 108 110 112 114 116 119 121 123 127 126 123 122
218 220 229 241 257 71 68 68 71 69 72 73 65 68 71 68 77 94 102 105 107 108 112 106 109 109 108 109 110 113 113 113 112 109 107 108 110 111 113 115 116 117 120 124 128 131 128 126 127
243 239 251 240 70 68 68 71 80 82 82 81 75 64 60 73 83 96 108 111 109 107 107 109 112 110 110 110 109 110 110 111 113 112 111 111 115 115 116 118 117 114 117 125 130 134 134 131 131
241 231 235 252 69 72 74 78 86 86 82 80 87 76 68 68 92 105 113 110 108 108 107 111 111 111 112 112 112 112 113 114 114 113 112 110 113 114 117 120 120 118 115 123 134 134 135 138 144
231 260 241 88 77 78 73 77 85 80 80 80 83 87 83 85 100 109 113 111 111 109 110 116 114 113 114 113 113 116 117 116 118 118 116 115 116 118 120 121 123 122 120 120 126 133 141 144 149
250 263 350 81 81 81 80 79 83 84 87 93 98 98 96 107 109 111 108 108 111 112 114 119 122 121 121 120 118 119 119 120 122 123 123 122 118 116 115 118 127 128 128 131 135 142 150 156 164
252 274 95 91 89 81 77 73 77 81 82 88 100 102 110 111 112 112 109 108 110 115 122 132 136 133 130 128 126 124 125 125 127 128 129 129 127 126 129 133 135 141 144 148 149 156 161 172 183
248 313 44 79 88 87 89 83 81 84 80 77 95 108 121 126 125 117 114 107 106 113 123 133 137 142 143 137 136 134 135 138 142 142 145 147 145 144 144 143 148 151 154 159 164 168 178 189 200
250 55 58 71 88 94 96 94 92 89 84 74 73 100 122 133 133 128 123 117 115 112 117 123 126 136 141 136 137 146 147 148 152 156 162 164 163 157 157 131 143 161 172 177 183 187 192 200 212
182 88 76 77 91 98 98 98 100 101 94 90 93 104 122 135 140 136 133 128 126 121 121 117 111 117 127 123 129 146 142 138 145 135 146 157 153 142 135 134 155 171 182 190 199 200 204 212 213
106 87 90 85 90 98 103 102 98 100 100 108 119 124 133 140 145 139 133 130 127 123 118 110 106 100 98 108 122 118 120 126 126 111 121 131 132 123 128 150 163 184 192 199 194 203 213 213 210
98 79 75 87 92 96 97 98 89 86 99 112 121 130 135 143 142 134 130 127 124 123 120 113 104 96 86 90 113 127 119 112 109 113 83 93 104 109 124 143 175 194 193 194 196 207 210 211 208
84 95 83 94 99 99 97 94 97 96 106 119 125 131 138 142 133 122 115 117 123 127 127 120 114 106 99 96 123 116 119 116 112 108 98 77 83 60 90 123 205 210 189 187 195 197 178 209 240
62 95 130 133 129 122 107 99 104 111 118 125 131 137 140 135 133 129 127 126 124 123 125 124 130 128 126 133 140 120 122 123 122 130 109 101 107 74 1 121 250 296 319 84 140 205 170 206 243
358 345 229 166 147 132 117 106 109 126 128 132 133 133 136 137 138 140 138 137 132 128 123 127 139 137 143 143 155 132 129 131 128 131 130 146 112 133 249 220 199 263 246 200 198 247 205 217 211
256 219 253 207 157 161 151 113 128 146 139 139 139 137 139 140 147 146 143 141 137 135 129 141 139 136 148 154 178 138 134 124 135 138 135 148 164 163 270 260 203 235 242 205 208 208 222 224 234
268 210 217 228 196 173 140 125 150 158 146 143 145 144 146 148 153 154 151 148 141 138 137 137 124 131 142 145 160 147 132 134 148 140 141 165 197 213 240 266 267 240 248 245 289 92 323 295 282
268 254 222 225 177 151 128 135 155 157 147 144 151 146 146 153 157 153 152 149 143 143 142 143 141 138 148 147 155 145 139 164 176 149 151 166 216 209 260 228 249 258 279 25 16 5 319 292 276
258 265 268 272 169 164 143 140 153 157 156 152 154 154 155 159 153 148 146 143 143 147 150 153 153 148 158 156 170 185 181 199 197 183 157 169 210 221 261 283 262 253 253 253 303 296 279 278 265
263 262 278 295 263 266 164 164 158 162 168 165 161 161 160 164 156 152 154 152 153 151 152 152 163 162 174 169 182 193 185 208 194 194 132 177 204 226 240 258 257 240 231 230 241 255 275 270 231
270 275 266 265 265 254 198 199 182 173 178 170 163 162 163 162 160 160 163 165 162 163 168 167 162 163 179 172 184 189 171 222 217 196 174 195 212 224 270 259 260 262 239 225 225 219 234 256 270
279 292 274 266 264 259 238 228 209 172 179 176 167 161 163 161 158 160 167 173 172 172 172 161 159 160 170 180 188 195 192 206 212 202 196 215 215 227 234 240 245 256 262 263 248 215 238 250 257
281 288 276 269 270 266 256 231 213 181 182 171 160 155 155 155 160 164 172 173 173 169 167 160 153 161 166 176 189 205 213 204 206 196 207 229 233 236 235 230 233 240 242 262 282 279 260 259 268
278 278 274 266 270 269 267 254 210 173 164 161 156 155 157 154 154 157 162 160 165 165 166 160 154 165 171 181 183 198 228 231 227 226 228 234 229 232 238 243 239 238 241 247 264 267 266 270 286
262 269 265 257 248 258 263 259 137 118 129 137 137 138 148 146 147 149 152 155 164 168 166 164 161 170 174 180 188 197 225 234 234 239 239 254 255 248 235 257 257 252 258 246 246 262 271 262 264
255 262 269 277 278 267 257 217 121 111 111 115 121 134 135 129 133 141 151 156 163 166 164 169 167 170 174 180 188 199 209 230 240 245 250 253 257 248 234 238 241 248 261 261 250 242 252 257 258
256 264 276 277 276 270 258 117 106 106 118 116 117 117 122 125 125 133 146 155 161 168 166 172 162 168 176 182 185 189 201 221 239 242 247 256 268 261 257 230 234 244 257 269 272 263 261 266 261
250 269 284 281 283 279 235 197 180 192 164 126 115 111 108 115 118 122 136 151 157 165 157 160 159 168 173 183 192 196 200 208 230 242 248 264 272 286 287 280 267 252 244 252 266 268 267 273 282
239 248 259 273 283 287 285 240 127 165 165 134 124 116 111 110 112 114 121 136 139 142 145 147 162 167 174 182 185 192 196 204 217 234 241 253 269 265 259 272 280 275 261 253 258 268 263 262 274
252 249 252 261 272 282 288 203 115 109 94 106 115 106 99 93 99 110 115 119 125 131 138 151 163 173 175 177 180 190 199 204 217 227 233 241 262 262 256 255 260 265 268 260 257 263 266 257 262